Simultaneous Nadir Overpasses (SNOs) Predictions

Prediction of SNOs between AQUA and METOP-C Satellite Orbit:

Table of predicted SNOs for the next 14.0 days since TLE Epoch: 7/15/2023
Index Date (AQUA) Time (AQUA) Lat,Lon (AQUA) SZA (AQUA ) Date (METOP-C) Time (METOP-C) Lat,Lon (METOP-C) SZA (METOP-C ) Distance(km) Time Diff (sec)
1 07/17/2023 06:26:45 74.58, 79.39 53.34 07/17/2023 06:25:59 74.60, 79.43 53.38 3.37 46
2 07/17/2023 07:16:10 -74.65,-113.15 126.58 07/17/2023 07:16:41 -74.63,-113.16 126.60 2.08 31
3 07/19/2023 23:29:38 -74.00, 5.02 126.79 07/19/2023 23:28:32 -73.95, 2.18 126.74 87.33 66
4 07/20/2023 00:19:15 74.61, 171.21 53.86 07/20/2023 00:18:57 74.63, 171.26 53.89 2.58 18
5 07/20/2023 01:08:40 -74.68, -21.31 126.06 07/20/2023 01:09:39 -74.66, -21.35 126.09 2.63 59
6 07/22/2023 17:22:17 -74.59, 95.53 125.64 07/22/2023 17:21:16 -74.61, 95.61 125.62 2.92 61
7 07/22/2023 18:11:43 74.64, -96.96 54.43 07/22/2023 18:11:54 74.65, -96.93 54.44 1.63 11
8 07/22/2023 19:01:18 -75.21, 69.21 124.96 07/22/2023 19:02:24 -75.25, 72.09 125.00 81.83 66
9 07/25/2023 11:14:45 -74.61,-172.62 125.04 07/25/2023 11:14:14 -74.62,-172.59 125.03 1.46 31
10 07/25/2023 12:04:11 74.67, -5.12 55.03 07/25/2023 12:04:52 74.68, -5.11 55.03 0.52 41
11 07/28/2023 04:17:46 74.53, 111.86 55.48 07/28/2023 04:16:33 74.48, 111.45 55.44 13.52 73
12 07/28/2023 05:07:12 -74.64, -80.76 124.41 07/28/2023 05:07:12 -74.64, -80.79 124.40 1.13 0



Historial Predications of SNOs between AQUA and METOP-C
